Lady Washington — WAA2820 — position and weather

sailwx.info

Track history (hours):
 
Tides and Currents Weather Stations Pressure Air Temp Water Temp Dewpoint Dewpoint Depression Visibility Wind Speed Wind Dir Waves Ship Positions

Lady Washington (United States)

Ship's website: http://www.historicalseaport.org/LadyWashington.htm

Owner: GRAYS HARBOR HISTORICAL SEAPORT AUTHORIT, ABERDEEN, WA. More information available from US FCC via Universal Licensing System and Coast Guard Vessel Documentation Center.

Last reported at 2019-Oct-16 23:39 UTC. Time now 2019-Oct-22 23:39 UTC.
Position N 47°54' W 122°30'.

Length 34 m.

Type: Sailing vessel. MMSI: 366945360.

Date/timePositionNaut miles runAvg speedWind from/ knotsBaromVisibWave heightAir tempDewpointWater temp
2019-Oct-16 23:39N 47°54' W 122°30'1 4.1
2019-Oct-16 23:25N 47°53' W 122°30'2 4.5
2019-Oct-16 22:58N 47°51' W 122°28'3 5.4
2019-Oct-16 22:22N 47°48' W 122°27'2 6.0
2019-Oct-16 21:57N 47°45' W 122°27'3 6.2
2019-Oct-16 21:30N 47°43' W 122°28'3 5.3
2019-Oct-16 21:00N 47°40' W 122°29'5 5.4
2019-Oct-16 20:00N 47°35' W 122°29'  
2019-Oct-07 03:43N 47°34' W 122°32'1 6.2
2019-Oct-07 03:30N 47°34' W 122°30'4 6.2
2019-Oct-07 02:47N 47°39' W 122°28'3 4.4
2019-Oct-07 02:00N 47°40' W 122°24'0 0.7
2019-Oct-07 01:28N 47°40' W 122°23'2 4.4
2019-Oct-07 01:00N 47°39' W 122°21'  
Track history (hours):
 
Tides and Currents Weather Stations Pressure Air Temp Water Temp Dewpoint Dewpoint Depression Visibility Wind Speed Wind Dir Waves Ship Positions

Lady Washington (United States)

Ship's website: http://www.historicalseaport.org/LadyWashington.htm

Owner: GRAYS HARBOR HISTORICAL SEAPORT AUTHORIT, ABERDEEN, WA. More information available from US FCC via Universal Licensing System and Coast Guard Vessel Documentation Center.

Last reported at 2019-Oct-16 23:39 UTC. Time now 2019-Oct-22 23:39 UTC.
Position N 47°54' W 122°30'.

Length 34 m.

Type: Sailing vessel. MMSI: 366945360.

Date/timePositionNaut miles runAvg speedWind from/ knotsBaromVisibWave heightAir tempDewpointWater temp
2019-Oct-16 23:39N 47°54' W 122°30'1 4.1
2019-Oct-16 23:25N 47°53' W 122°30'2 4.5
2019-Oct-16 22:58N 47°51' W 122°28'3 5.4
2019-Oct-16 22:22N 47°48' W 122°27'2 6.0
2019-Oct-16 21:57N 47°45' W 122°27'3 6.2
2019-Oct-16 21:30N 47°43' W 122°28'3 5.3
2019-Oct-16 21:00N 47°40' W 122°29'5 5.4
2019-Oct-16 20:00N 47°35' W 122°29'  
2019-Oct-07 03:43N 47°34' W 122°32'1 6.2
2019-Oct-07 03:30N 47°34' W 122°30'4 6.2
2019-Oct-07 02:47N 47°39' W 122°28'3 4.4
2019-Oct-07 02:00N 47°40' W 122°24'0 0.7
2019-Oct-07 01:28N 47°40' W 122°23'2 4.4
2019-Oct-07 01:00N 47°39' W 122°21'  

Dump ship's entire track history